Regional Weather Roundup
Issued by NWS San Diego, CA

Home | Current Version | Previous Version | Text Only | Print | Product List | Glossary On
Versions: 1 2 3 4 5 6 7 8 9 10 11 12 13 14 15 16 17 18 19 20 21 22 23 24 25 26 27 28 29 30 31 32 33 34 35 36 37 38 39 40 41 42 43 44 45 46 47 48 49 50
000
ASUS46 KSGX 032211
RWRSGX

SAN DIEGO HOURLY WEATHER ROUNDUP
NATIONAL WEATHER SERVICE SAN DIEGO CA
300 PM PDT TUE MAY 03 2016

NOTE: "FAIR" INDICATES FEW OR NO CLOUDS BELOW 12,000 FEET WITH NO
SIGNIFICANT WEATHER AND/OR OBSTRUCTIONS TO VISIBILITY.

CAZ042-043-060-061-PZZ750-775-032300-

GREATER SAN DIEGO AREA

CITY           SKY/WX    TMP DP  RH WIND       PRES   REMARKS
LINDBERGH FLD  MOSUNNY   69  54  58 NW9       29.97F
POINT LOMA       N/A     68  55  63 W10         N/A
NATIONAL CITY    N/A     67  59  74 SW12      29.97F
CHULA VISTA      N/A     69  60  74 W14       29.88F
IMPERIAL BEACH PTSUNNY   69  56  62 W12       29.97F
BROWN FIELD    SUNNY     69  56  62 NW8       29.95F
MIRAMAR MCAS   MOSUNNY   73  53  49 VRB5      29.95F
MONTGOMERY FLD SUNNY     72  52  49 N6        29.95F

$$

NORTH SAN DIEGO COUNTY

CITY           SKY/WX    TMP DP  RH WIND       PRES   REMARKS
CAMP PENDLETON PTSUNNY   71  58  63 SW10G20   29.93F
OCEANSIDE AP   SUNNY     68  55  63 W9        29.94F
OCEANSIDE HBR    N/A     63  59  86 SW10      29.97F
VISTA            N/A     70  58  66 SW3       29.93F
CARLSBAD       SUNNY     66  56  70 W6        29.94F
DEL MAR          N/A     68  59  72 CALM      29.98F
LA JOLLA SCRIP   N/A     64  58  81 SW3       29.95F
FALLBROOK        N/A     74  61  63 S5        29.92F
SAN MARCOS       N/A     69  57  63 NW5       29.93F
POWAY            N/A     76  58  53 CALM      29.95F

$$

EAST SAN DIEGO COUNTY

CITY           SKY/WX    TMP DP  RH WIND       PRES   REMARKS
RAMONA         SUNNY     76  55  48 W9G16     29.95S
SANTEE LAKES     N/A     76  58  52 W3        29.93F
LA MESA          N/A     73  57  56 CALM      29.88F
JAMUL            N/A     78  60  54 W5        29.93F
DESCANSO N       N/A     77  53  43 W9        29.81F
MT. LAGUNA OBS   N/A     61  27  27 E12       29.72
CAMPO            N/A     80  51  36 SW20      29.93F

$$

ORANGE COUNTY AND THE LOS ANGELES BASIN

CITY           SKY/WX    TMP DP  RH WIND       PRES   REMARKS
JOHN WAYNE AP  PTSUNNY   68  55  63 SW10      29.93F
LAKE FOREST FR   N/A     83  54  36 W3        29.81F
HUNTINGTON BCH   N/A     67  60  79 SW6       29.95F
LOS ALAMITOS   FAIR      74  55  51 SW10      29.92F
FULLERTON      MOSUNNY   76  54  46 S9        29.91S
LONG BEACH     PTSUNNY   75  55  49 W10       29.92F
L.A. AP        PTSUNNY   68  55  63 W8        29.93F
L.A. DOWNTOWN  PTSUNNY   72  55  55 VRB6      29.92F

$$

THE INLAND EMPIRE

CITY           SKY/WX    TMP DP  RH WIND       PRES   REMARKS
CORONA         MOSUNNY   86  55  34 W15G22    29.89F
CHINO          PTSUNNY   91  44  19 W17       29.90F
ONTARIO        PTSUNNY   88  47  24 SW18G25   29.90F
SAN BERNARDINO PTSUNNY   91  32  12 S9        29.89F
RIVERSIDE AP   MOSUNNY   90  43  19 W13G22    29.88F
MORENO VALLEY    N/A     91  37  15 SW3       28.04S
MARCH ARB      SUNNY     89  31  12 VRB5      29.90F
HORSETHIEF CYN   N/A     88  39  18 E5        29.90F
PERRIS           N/A     87  34  15 NE2       29.87F
HEMET EAST       N/A     85  34  15 CALM      29.81S
FRENCH VALLEY  FAIR      82  48  30 SW12G18   29.92F
TEMECULA         N/A     83  56  39 SW10      29.87F

$$

SAN BERNARDINO AND RIVERSIDE COUNTY MOUNTAINS

CITY           SKY/WX    TMP DP  RH WIND       PRES   REMARKS
BIG BEAR AP    SUNNY     63  30  29 W7        30.17F
ANGELUS OAKS     N/A     68  38  33 NW1       29.90F
PINE COVE        N/A     68  33  27 S2        29.96F

$$

SOUTHERN DESERT INCLUDING THE COACHELLA VALLEY

CITY           SKY/WX    TMP DP  RH WIND       PRES   REMARKS
PALM SPRINGS   MOSUNNY   93  30  10 VRB3      29.88F
THOUSAND PALMS   N/A     95  35  12 NW3       29.84F
PALM DESERT      N/A     97  37  12 S1          N/A
THERMAL        SUNNY     96  28   9 S7        29.82F
BLYTHE         SUNNY     92  33  12 VRB7      29.87F
IMPERIAL AP    SUNNY     95  32  11 NE5       29.84F
EL CENTRO NAS  MOSUNNY   94  30  10 SE12G22   29.86F
YUMA AZ        MOSUNNY   93  30  10 W5        29.85
MEXICALI       SUNNY     93  28  10 NE3       29.85F

$$

UPPER DESERT

CITY           SKY/WX    TMP DP  RH WIND       PRES   REMARKS
VICTORVILLE AP MOSUNNY   82  28  14 S7G20     29.99F
HESPERIA         N/A     81  34  18 E2        30.01F
PALMDALE       PTSUNNY   83  28  13 VRB6      29.98F
LANCASTER      PTSUNNY   83  28  13 CALM      29.98F
EDWARDS AFB    PTSUNNY   83  23  11 E8        29.96F
DAGGETT        SUNNY     86  27  11 E12       29.96F
29 PALMS N     MOSUNNY   85  26  11 CALM      30.02F
NEEDLES        SUNNY     92  33  12 N6        29.89F

$$

REGIONAL REPORTS

CITY           SKY/WX    TMP DP  RH WIND       PRES   REMARKS
SANTA BARBARA  CLOUDY    64  53  67 W12       29.95S
SANDBERG       PTSUNNY   78  34  20 S13G22    30.09F
LAS VEGAS NV   MOSUNNY   83  31  15 E13       29.97F
PHOENIX AZ     MOSUNNY   91  29  11 S5        29.85F
TIJUANA        SUNNY     68  54  60 W6        29.98F
ENSENADA NW      N/A     65  32  29 SW3       29.93F

$$

OFFSHORE ISLANDS

CITY           SKY/WX    TMP DP  RH WIND       PRES   REMARKS
CATALINA ARPT  PTSUNNY   72  45  37 W3        29.98F
SAN CLEMENTE I PTSUNNY   60  53  77 SW12      29.97F
SAN NICOLAS IS CLOUDY    61  53  75 W13       29.96F

$$

MARINE AND OFFSHORE BUOY REPORTS

STATION/POSITION SKY/WX   TEMP    WIND        PRES    SWELL
                          AIR SEA DIR/SP/G            HT/PER/DIR
                          (F)     (DEG/KT/KT) (MB)    (FT/S/D)
TANNER BANKS               58 60  290/ 12/ 14 1015.4F   5/300/14
S CLEMENTE BASIN           58 62  270/ 14/ 16 1014.5F   5/240/14
SAN NICOLAS IS.               59                N/A     7/280/13
SO. S. ROSA ISLA           55 56  290/ 14/ 17 1015.3F   7/290/13
W. S. BARBARA CH           55 57  300/ 16/ 17 1014.5F   5/280/12
M. S. BARBARA CH           55 57  260/ 16/ 17 1015.1F
S. MONICA BASIN            58 62  250/  8/ 12 1014.3F   3/210/14
S PEDRO CHANNEL               62                N/A     2/220/14
OCEANSIDE OFFSHR              65                N/A     3/200/14
TORREY PINES OTR              65                N/A     3/200/13
LA JOLLA 1                 63 67  300/  6/  8 1014.9F
SAN DIEGO BAY                 68              1015.2F
POINT LOMA SOUTH              63                N/A     3/180/13

$$




USA.gov is the U.S. government's official web portal to all federal, state and local government web resources and services.